Regional Weather Roundup
Issued by NWS

Home | Current Version | Previous Version | Graphics & Text | Print | Product List | Glossary Off
Versions: 1 2 3 4 5 6 7 8 9 10 11 12 13 14 15 16 17 18 19 20 21 22 23 24 25 26 27 28 29 30 31 32 33 34 35 36 37 38 39 40 41 42 43 44 45 46 47 48 49 50

000
ASUS43 KFSD 231902
RWRSD

WEATHER ROUNDUP FOR SOUTH DAKOTA
NATIONAL WEATHER SERVICE SIOUX FALLS SD
100 PM CST TUE JAN 23 2018

NOTE: "FAIR" INDICATES FEW OR NO CLOUDS BELOW 12,000 FEET WITH NO
SIGNIFICANT WEATHER AND/OR OBSTRUCTIONS TO VISIBILITY.


SDZ001>005-009-010-012>017-232000-
NORTHWEST AND NORTH CENTRAL SOUTH DAKOTA

CITY           SKY/WX    TMP DP  RH WIND       PRES   REMARKS
BUFFALO          N/A     35  21  56 W21       30.06S WCI  24
FAITH            N/A     39  23  52 NW22G30   30.10F
MOBRIDGE       MOSUNNY   32  27  81 NW10      30.06S WCI  24
$$

SDZ012>016-024>037-041>051-057-063-072>074-232000-
SOUTHWEST AND SOUTH CENTRAL SOUTH DAKOTA

CITY           SKY/WX    TMP DP  RH WIND       PRES   REMARKS
RAPID CTY ARPT SUNNY     44  15  31 NW21G32   30.13F
PIERRE         PTSUNNY   38  27  64 NW15      30.09F
CUSTER         SUNNY     31  10  41 NW13G22   30.09F WCI  21
ELLSWORTH AFB  SUNNY     43  16  34 NW25G31   30.11F
PHILIP         MOSUNNY   41  27  57 NW17      30.13F
PINE RIDGE     MOSUNNY   30  22  72 W12       30.20R WCI  20
SPEARFISH        N/A     36  18  48 W17G25    30.15S
WINNER         FAIR      38  29  70 W12       30.12F
$$

SDZ004>011-016>023-039-040-232000-
NORTHEAST SOUTH DAKOTA

CITY           SKY/WX    TMP DP  RH WIND       PRES   REMARKS
ABERDEEN       CLOUDY    26  22  84 NW6       30.10S WCI  19
WATERTOWN      CLOUDY    22  20  92 W7        30.06F WCI  13
BROOKINGS      CLOUDY    22  19  89 VRB5      30.09S WCI  16
SISSETON         N/A     23  18  81 SW6       30.09F WCI  16
$$

SDZ017-020-022-023-036>040-048>070-232000-
SOUTHEAST SOUTH DAKOTA

CITY           SKY/WX    TMP DP  RH WIND       PRES   REMARKS
SIOUX FALLS    CLOUDY    23  20  88 W5        30.11F WCI  17
HURON          CLOUDY    24  22  91 S3        30.11F
CHAMBERLAIN    MOSUNNY   32  29  91 W9        30.11S WCI  24
MITCHELL       CLOUDY    25  23  92 W6        30.13F WCI  18
YANKTON        CLOUDY    26  22  84 W5        30.15F WCI  20
$$

ABBREVIATIONS USED IN REMARKS
   TC - TEMPERATURE IN CELSIUS
  WCI - WIND CHILL INDEX
   HX - HEAT INDEX
  VSB - VISIBILITY





USA.gov is the U.S. government's official web portal to all federal, state and local government web resources and services.